Location: Viterbo
(42.4170°N, 12.1000°E)
Time: 03:08:18
(UTC+01:00)

ISS - Pass Details

Date: 24 February 2019
Orbit: 406 x 411 km, 51.6° (Epoch: 19 March)

Event Time Altitude Azimuth Distance (km) Brightness Sun altitude
Exits shadow 05:37:38 - 201° (SSW) 1,605 -1.0 -15.1°
Reaches altitude 10° 05:38:03 10° 198° (SSW) 1,455 -1.2 -15.1°
Maximum altitude 05:40:55 29° 137° (SE) 781 -1.9 -14.5°
Drops below altitude 10° 05:43:48 10° 75° (ENE) 1,465 0.3 -14.0°
Sets 05:46:03 0° 64° (ENE) 2,329 1.2 -13.6°
